Time,TemperatureF,DewpointF,PressureIn,WindDirection,WindDirectionDegrees,WindSpeedMPH,WindSpeedGustMPH,Humidity,HourlyPrecipIn,Conditions,Clouds,dailyrainin,SoftwareType,DateUTC
2013-02-15 00:00:00,30.8,29.5,29.46,NNW,346,0.0,0.0,95,0.00,CLR,,0.00,WeatherDisplay:10.37,2013-02-15 09:00:00,
2013-02-15 00:05:00,30.6,29.3,29.46,NNW,346,0.0,0.0,95,0.00,CLR,,0.00,WeatherDisplay:10.37,2013-02-15 09:05:00,
2013-02-15 00:10:00,30.4,28.9,29.46,NNW,346,0.0,0.0,94,0.00,CLR,,0.00,WeatherDisplay:10.37,2013-02-15 09:10:00,
2013-02-15 00:15:00,30.2,28.7,29.46,NNW,346,0.0,0.0,94,0.00,CLR,,0.00,WeatherDisplay:10.37,2013-02-15 09:15:00,
2013-02-15 00:20:00,30.1,28.6,29.46,NNW,345,0.0,0.0,94,0.00,CLR,,0.00,WeatherDisplay:10.37,2013-02-15 09:20:00,
2013-02-15 00:25:00,30.1,28.6,29.46,NNW,346,0.0,0.0,94,0.00,CLR,,0.00,WeatherDisplay:10.37,2013-02-15 09:25:00,
2013-02-15 00:30:00,30.1,28.6,29.46,NNW,346,0.0,0.0,94,0.00,CLR,,0.00,WeatherDisplay:10.37,2013-02-15 09:30:00,
2013-02-15 00:35:00,30.1,28.6,29.46,NNW,346,0.0,0.0,94,0.00,CLR,,0.00,WeatherDisplay:10.37,2013-02-15 09:35:00,
2013-02-15 00:40:00,30.0,28.5,29.46,NNW,346,0.0,0.0,94,0.00,CLR,,0.00,WeatherDisplay:10.37,2013-02-15 09:40:00,
2013-02-15 00:45:00,29.9,28.1,29.46,NNW,346,0.0,0.0,93,0.00,CLR,,0.00,WeatherDisplay:10.37,2013-02-15 09:45:00,
2013-02-15 00:50:00,29.9,28.1,29.47,NNW,345,0.0,0.0,93,0.00,CLR,,0.00,WeatherDisplay:10.37,2013-02-15 09:50:00,
2013-02-15 00:55:00,29.9,28.1,29.47,NNW,346,0.0,0.0,93,0.00,CLR,,0.00,WeatherDisplay:10.37,2013-02-15 09:55:00,
2013-02-15 01:00:00,30.0,28.2,29.47,NNW,346,0.0,0.0,93,0.00,CLR,,0.00,WeatherDisplay:10.37,2013-02-15 10:00:00,
2013-02-15 01:05:00,30.0,28.0,29.47,NNW,346,0.0,0.0,92,0.00,CLR,,0.00,WeatherDisplay:10.37,2013-02-15 10:05:00,
2013-02-15 01:10:00,29.8,27.8,29.48,NNW,345,0.0,0.0,92,0.00,CLR,,0.00,WeatherDisplay:10.37,2013-02-15 10:10:00,
2013-02-15 01:15:00,29.7,27.7,29.48,NNW,345,0.0,0.0,92,0.00,CLR,,0.00,WeatherDisplay:10.37,2013-02-15 10:15:00,
2013-02-15 01:20:00,29.5,27.5,29.48,NNW,346,0.0,0.0,92,0.00,CLR,,0.00,WeatherDisplay:10.37,2013-02-15 10:20:00,
2013-02-15 01:25:00,29.5,27.5,29.49,NNW,346,0.0,0.0,92,0.00,CLR,,0.00,WeatherDisplay:10.37,2013-02-15 10:25:00,
2013-02-15 01:30:00,29.4,27.4,29.49,NNW,346,0.0,0.0,92,0.00,CLR,,0.00,WeatherDisplay:10.37,2013-02-15 10:30:00,
2013-02-15 01:35:00,29.2,27.2,29.49,NNW,345,0.0,0.0,92,0.00,CLR,,0.00,WeatherDisplay:10.37,2013-02-15 10:35:00,
2013-02-15 01:40:00,29.1,27.1,29.49,NNW,346,0.0,0.0,92,0.00,CLR,,0.00,WeatherDisplay:10.37,2013-02-15 10:40:00,
2013-02-15 01:45:00,29.0,27.2,29.49,NNW,345,0.0,0.0,93,0.00,CLR,,0.00,WeatherDisplay:10.37,2013-02-15 10:45:00,
2013-02-15 01:50:00,28.8,27.0,29.50,NNW,345,0.0,0.0,93,0.00,CLR,,0.00,WeatherDisplay:10.37,2013-02-15 10:50:00,
2013-02-15 01:55:00,28.7,26.9,29.50,NNW,346,0.0,0.0,93,0.00,CLR,,0.00,WeatherDisplay:10.37,2013-02-15 10:55:00,
2013-02-15 02:00:00,28.6,26.8,29.50,NNW,346,0.0,0.0,93,0.00,CLR,,0.00,WeatherDisplay:10.37,2013-02-15 11:00:00,
2013-02-15 02:05:00,28.5,26.7,29.50,NNW,346,0.0,0.0,93,0.00,CLR,,0.00,WeatherDisplay:10.37,2013-02-15 11:05:00,
2013-02-15 02:10:00,28.5,26.7,29.50,NNW,345,0.0,0.0,93,0.00,CLR,,0.00,WeatherDisplay:10.37,2013-02-15 11:10:00,
2013-02-15 02:15:00,28.5,26.7,29.50,NNW,346,0.0,0.0,93,0.00,CLR,,0.00,WeatherDisplay:10.37,2013-02-15 11:15:00,
2013-02-15 02:20:00,28.4,26.6,29.50,NNW,345,0.0,0.0,93,0.00,CLR,,0.00,WeatherDisplay:10.37,2013-02-15 11:20:00,
2013-02-15 02:25:00,28.3,26.5,29.51,NNW,345,0.0,0.0,93,0.00,CLR,,0.00,WeatherDisplay:10.37,2013-02-15 11:25:00,
2013-02-15 02:30:00,28.2,26.4,29.51,NNW,346,0.0,0.0,93,0.00,CLR,,0.00,WeatherDisplay:10.37,2013-02-15 11:30:00,
2013-02-15 02:35:00,28.2,26.4,29.51,NNW,346,0.0,0.0,93,0.00,CLR,,0.00,WeatherDisplay:10.37,2013-02-15 11:35:00,
2013-02-15 02:40:00,28.3,26.5,29.51,NNW,346,0.0,0.0,93,0.00,CLR,,0.00,WeatherDisplay:10.37,2013-02-15 11:40:00,
2013-02-15 02:45:00,28.4,26.9,29.51,NNW,345,0.0,0.0,94,0.00,CLR,,0.00,WeatherDisplay:10.37,2013-02-15 11:45:00,
2013-02-15 02:50:00,28.5,27.0,29.51,NNW,346,0.0,0.0,94,0.00,CLR,,0.00,WeatherDisplay:10.37,2013-02-15 11:50:00,
2013-02-15 02:55:00,28.4,26.6,29.52,NNW,346,0.0,0.0,93,0.00,CLR,,0.00,WeatherDisplay:10.37,2013-02-15 11:55:00,
2013-02-15 03:00:00,28.3,26.5,29.51,NNW,345,0.0,0.0,93,0.00,CLR,,0.00,WeatherDisplay:10.37,2013-02-15 12:00:00,
2013-02-15 03:05:00,28.2,26.4,29.52,NNW,346,0.0,0.0,93,0.00,CLR,,0.00,WeatherDisplay:10.37,2013-02-15 12:05:00,
2013-02-15 03:10:00,28.1,26.3,29.52,NNW,346,0.0,0.0,93,0.00,CLR,,0.00,WeatherDisplay:10.37,2013-02-15 12:10:00,
2013-02-15 03:15:00,28.0,26.2,29.52,NNW,346,0.0,0.0,93,0.00,CLR,,0.00,WeatherDisplay:10.37,2013-02-15 12:15:00,
2013-02-15 03:20:00,27.9,26.1,29.52,NNW,346,0.0,0.0,93,0.00,CLR,,0.00,WeatherDisplay:10.37,2013-02-15 12:20:00,
2013-02-15 03:25:00,27.8,26.0,29.52,NNW,346,0.0,0.0,93,0.00,CLR,,0.00,WeatherDisplay:10.37,2013-02-15 12:25:00,
2013-02-15 03:30:00,27.6,25.8,29.52,NNW,346,0.0,0.0,93,0.00,CLR,,0.00,WeatherDisplay:10.37,2013-02-15 12:30:00,
2013-02-15 03:35:00,27.4,25.6,29.53,NNW,345,0.0,0.0,93,0.00,CLR,,0.00,WeatherDisplay:10.37,2013-02-15 12:35:00,
2013-02-15 03:40:00,27.3,25.5,29.52,NNW,346,0.0,0.0,93,0.00,CLR,,0.00,WeatherDisplay:10.37,2013-02-15 12:40:00,
2013-02-15 03:45:00,27.2,25.4,29.53,NNW,345,0.0,0.0,93,0.00,CLR,,0.00,WeatherDisplay:10.37,2013-02-15 12:45:00,
2013-02-15 03:50:00,27.2,25.4,29.53,NNW,346,0.0,0.0,93,0.00,CLR,,0.00,WeatherDisplay:10.37,2013-02-15 12:50:00,
2013-02-15 03:55:00,27.1,25.3,29.52,NNW,346,0.0,0.0,93,0.00,CLR,,0.00,WeatherDisplay:10.37,2013-02-15 12:55:00,
2013-02-15 04:00:00,27.0,25.2,29.52,NNW,345,0.0,0.0,93,0.00,CLR,,0.00,WeatherDisplay:10.37,2013-02-15 13:00:00,
2013-02-15 04:05:00,27.0,25.2,29.52,NNW,346,0.0,0.0,93,0.00,CLR,,0.00,WeatherDisplay:10.37,2013-02-15 13:05:00,
2013-02-15 04:10:00,26.9,25.1,29.52,NNW,346,0.0,0.0,93,0.00,CLR,,0.00,WeatherDisplay:10.37,2013-02-15 13:10:00,
2013-02-15 04:15:00,26.9,25.1,29.52,NNW,345,0.0,0.0,93,0.00,CLR,,0.00,WeatherDisplay:10.37,2013-02-15 13:15:00,
2013-02-15 04:20:00,26.8,25.0,29.53,NNW,346,0.0,0.0,93,0.00,CLR,,0.00,WeatherDisplay:10.37,2013-02-15 13:20:00,
2013-02-15 04:25:00,26.8,25.0,29.53,NNW,346,0.0,0.0,93,0.00,CLR,,0.00,WeatherDisplay:10.37,2013-02-15 13:25:00,
2013-02-15 04:30:00,26.9,25.1,29.52,NNW,346,0.0,0.0,93,0.00,CLR,,0.00,WeatherDisplay:10.37,2013-02-15 13:30:00,
2013-02-15 04:35:00,26.8,25.0,29.52,NNW,345,0.0,0.0,93,0.00,CLR,,0.00,WeatherDisplay:10.37,2013-02-15 13:35:00,
2013-02-15 04:40:00,26.7,24.9,29.52,NNW,346,0.0,0.0,93,0.00,CLR,,0.00,WeatherDisplay:10.37,2013-02-15 13:40:00,
2013-02-15 04:45:00,26.6,24.8,29.52,NNW,346,0.0,0.0,93,0.00,CLR,,0.00,WeatherDisplay:10.37,2013-02-15 13:45:00,
2013-02-15 04:50:00,26.6,24.8,29.52,NNW,346,0.0,0.0,93,0.00,CLR,,0.00,WeatherDisplay:10.37,2013-02-15 13:50:00,
2013-02-15 04:55:00,26.7,25.2,29.52,NNW,346,0.0,0.0,94,0.00,CLR,,0.00,WeatherDisplay:10.37,2013-02-15 13:55:00,
2013-02-15 05:00:00,27.0,25.5,29.52,NNW,345,0.0,0.0,94,0.00,CLR,,0.00,WeatherDisplay:10.37,2013-02-15 14:00:00,
2013-02-15 05:05:00,27.0,25.5,29.52,NNW,346,0.0,0.0,94,0.00,CLR,,0.00,WeatherDisplay:10.37,2013-02-15 14:05:00,
2013-02-15 05:10:00,26.9,25.4,29.52,NNW,345,0.0,0.0,94,0.00,CLR,,0.00,WeatherDisplay:10.37,2013-02-15 14:10:00,
2013-02-15 05:15:00,26.8,25.3,29.53,NNW,345,0.0,0.0,94,0.00,CLR,,0.00,WeatherDisplay:10.37,2013-02-15 14:15:00,
2013-02-15 05:20:00,27.0,25.5,29.53,NNW,346,0.0,0.0,94,0.00,CLR,,0.00,WeatherDisplay:10.37,2013-02-15 14:20:00,
2013-02-15 05:25:00,27.2,25.7,29.53,NNW,346,0.0,0.0,94,0.00,CLR,,0.00,WeatherDisplay:10.37,2013-02-15 14:25:00,
2013-02-15 05:30:00,27.5,26.0,29.52,NNW,345,0.0,0.0,94,0.00,CLR,,0.00,WeatherDisplay:10.37,2013-02-15 14:30:00,
2013-02-15 05:35:00,27.5,26.0,29.52,NNW,345,0.0,0.0,94,0.00,CLR,,0.00,WeatherDisplay:10.37,2013-02-15 14:35:00,
2013-02-15 05:40:00,27.3,25.8,29.53,NNW,346,0.0,0.0,94,0.00,CLR,,0.00,WeatherDisplay:10.37,2013-02-15 14:40:00,
2013-02-15 05:45:00,27.1,25.3,29.53,NNW,346,0.0,0.0,93,0.00,CLR,,0.00,WeatherDisplay:10.37,2013-02-15 14:45:00,
2013-02-15 05:50:00,26.9,25.1,29.53,NNW,345,0.0,0.0,93,0.00,CLR,,0.00,WeatherDisplay:10.37,2013-02-15 14:50:00,
2013-02-15 05:55:00,26.7,24.9,29.53,NNW,346,0.0,0.0,93,0.00,CLR,,0.00,WeatherDisplay:10.37,2013-02-15 14:55:00,
2013-02-15 06:00:00,26.5,24.8,29.53,NNW,346,0.0,0.0,93,0.00,CLR,,0.00,WeatherDisplay:10.37,2013-02-15 15:00:00,
2013-02-15 06:05:00,26.5,24.8,29.53,NNW,346,0.0,0.0,93,0.00,CLR,,0.00,WeatherDisplay:10.37,2013-02-15 15:05:00,
2013-02-15 06:10:00,26.3,24.6,29.53,NNW,345,0.0,0.0,93,0.00,CLR,,0.00,WeatherDisplay:10.37,2013-02-15 15:10:00,
2013-02-15 06:15:00,26.4,24.7,29.53,NNW,346,0.0,0.0,93,0.00,CLR,,0.00,WeatherDisplay:10.37,2013-02-15 15:15:00,
2013-02-15 06:20:00,26.4,24.7,29.54,NNW,346,0.0,0.0,93,0.00,CLR,,0.00,WeatherDisplay:10.37,2013-02-15 15:20:00,
2013-02-15 06:25:00,26.3,24.6,29.54,NNW,345,0.0,0.0,93,0.00,CLR,,0.00,WeatherDisplay:10.37,2013-02-15 15:25:00,
2013-02-15 06:30:00,26.3,24.6,29.54,NNW,346,0.0,0.0,93,0.00,CLR,,0.00,WeatherDisplay:10.37,2013-02-15 15:30:00,
2013-02-15 06:35:00,26.3,24.6,29.54,NNW,346,0.0,0.0,93,0.00,CLR,,0.00,WeatherDisplay:10.37,2013-02-15 15:35:00,
2013-02-15 06:40:00,26.3,24.8,29.54,NNW,346,0.0,0.0,94,0.00,CLR,,0.00,WeatherDisplay:10.37,2013-02-15 15:40:00,
2013-02-15 06:45:00,26.4,24.9,29.54,NNW,346,0.0,0.0,94,0.00,CLR,,0.00,WeatherDisplay:10.37,2013-02-15 15:45:00,
2013-02-15 06:50:00,26.4,24.9,29.54,NNW,345,0.0,0.0,94,0.00,CLR,,0.00,WeatherDisplay:10.37,2013-02-15 15:50:00,
2013-02-15 06:55:00,26.6,25.1,29.55,NNW,346,0.0,0.0,94,0.00,CLR,,0.00,WeatherDisplay:10.37,2013-02-15 15:55:00,
2013-02-15 07:00:00,26.9,25.4,29.55,NNW,345,0.0,0.0,94,0.00,CLR,,0.00,WeatherDisplay:10.37,2013-02-15 16:00:00,
2013-02-15 07:05:00,26.9,25.4,29.55,NNW,346,0.0,0.0,94,0.00,CLR,,0.00,WeatherDisplay:10.37,2013-02-15 16:05:00,
2013-02-15 07:10:00,27.0,25.5,29.55,NNW,345,0.0,0.0,94,0.00,CLR,,0.00,WeatherDisplay:10.37,2013-02-15 16:10:00,
2013-02-15 07:15:00,27.0,25.5,29.55,NNW,346,0.0,0.0,94,0.00,CLR,,0.00,WeatherDisplay:10.37,2013-02-15 16:15:00,
2013-02-15 07:20:00,27.1,25.6,29.55,NNW,346,0.0,0.0,94,0.00,CLR,,0.00,WeatherDisplay:10.37,2013-02-15 16:20:00,
2013-02-15 07:25:00,27.1,25.6,29.55,NNW,345,0.0,0.0,94,0.00,CLR,,0.00,WeatherDisplay:10.37,2013-02-15 16:25:00,
2013-02-15 07:30:00,27.1,25.6,29.55,NNW,346,0.0,0.0,94,0.00,CLR,,0.00,WeatherDisplay:10.37,2013-02-15 16:30:00,
2013-02-15 07:35:00,27.2,25.7,29.55,NNW,346,0.0,0.0,94,0.00,CLR,,0.00,WeatherDisplay:10.37,2013-02-15 16:35:00,
2013-02-15 07:40:00,27.2,25.7,29.56,NNW,345,0.0,0.0,94,0.00,CLR,,0.00,WeatherDisplay:10.37,2013-02-15 16:40:00,
2013-02-15 07:45:00,27.2,25.7,29.56,NNW,345,0.0,0.0,94,0.00,CLR,,0.00,WeatherDisplay:10.37,2013-02-15 16:45:00,
2013-02-15 07:50:00,27.3,25.8,29.56,NNW,346,0.0,0.0,94,0.00,CLR,,0.00,WeatherDisplay:10.37,2013-02-15 16:50:00,
2013-02-15 07:55:00,27.4,25.9,29.56,NNW,346,0.0,0.0,94,0.00,CLR,,0.00,WeatherDisplay:10.37,2013-02-15 16:55:00,
2013-02-15 08:00:00,27.4,25.9,29.56,NNW,345,0.0,0.0,94,0.00,CLR,,0.00,WeatherDisplay:10.37,2013-02-15 17:00:00,
2013-02-15 08:05:00,27.5,26.0,29.56,NNW,345,0.0,0.0,94,0.00,CLR,,0.00,WeatherDisplay:10.37,2013-02-15 17:05:00,
2013-02-15 08:10:00,27.5,26.0,29.57,NNW,346,0.0,0.0,94,0.00,CLR,,0.00,WeatherDisplay:10.37,2013-02-15 17:10:00,
2013-02-15 08:15:00,27.6,26.1,29.57,NNW,346,0.0,0.0,94,0.00,CLR,,0.00,WeatherDisplay:10.37,2013-02-15 17:15:00,
2013-02-15 08:20:00,27.6,26.1,29.57,NNW,345,0.0,0.0,94,0.00,CLR,,0.00,WeatherDisplay:10.37,2013-02-15 17:20:00,
2013-02-15 08:25:00,27.8,26.3,29.57,NNW,346,0.0,0.0,94,0.00,CLR,,0.00,WeatherDisplay:10.37,2013-02-15 17:25:00,
2013-02-15 08:30:00,27.9,26.4,29.57,NNW,346,0.0,0.0,94,0.00,CLR,,0.00,WeatherDisplay:10.37,2013-02-15 17:30:00,
2013-02-15 08:35:00,28.0,26.2,29.58,NNW,345,0.0,0.0,93,0.00,CLR,,0.00,WeatherDisplay:10.37,2013-02-15 17:35:00,
2013-02-15 08:40:00,28.1,26.3,29.58,NNW,345,0.0,0.0,93,0.00,CLR,,0.00,WeatherDisplay:10.37,2013-02-15 17:40:00,
2013-02-15 08:45:00,28.1,26.3,29.58,NNW,346,0.0,0.0,93,0.00,CLR,,0.00,WeatherDisplay:10.37,2013-02-15 17:45:00,
2013-02-15 08:50:00,28.3,26.5,29.58,NNW,345,0.0,0.0,93,0.00,CLR,,0.00,WeatherDisplay:10.37,2013-02-15 17:50:00,
2013-02-15 08:55:00,28.3,26.5,29.58,NNW,345,0.0,0.0,93,0.00,CLR,,0.00,WeatherDisplay:10.37,2013-02-15 17:55:00,
2013-02-15 09:00:00,28.4,26.6,29.58,NNW,345,0.0,0.0,93,0.00,CLR,,0.00,WeatherDisplay:10.37,2013-02-15 18:00:00,
2013-02-15 09:05:00,28.5,26.7,29.59,NNW,345,0.0,0.0,93,0.00,CLR,,0.00,WeatherDisplay:10.37,2013-02-15 18:05:00,
2013-02-15 09:10:00,28.6,26.8,29.59,NNW,345,0.0,0.0,93,0.00,CLR,,0.00,WeatherDisplay:10.37,2013-02-15 18:10:00,
2013-02-15 09:15:00,28.7,26.9,29.59,NNW,345,0.0,0.0,93,0.00,CLR,,0.00,WeatherDisplay:10.37,2013-02-15 18:15:00,
2013-02-15 09:20:00,28.8,27.0,29.59,NNW,346,0.0,0.0,93,0.00,CLR,,0.00,WeatherDisplay:10.37,2013-02-15 18:20:00,
2013-02-15 09:25:00,28.9,27.1,29.59,NNW,346,0.0,0.0,93,0.00,CLR,,0.00,WeatherDisplay:10.37,2013-02-15 18:25:00,
2013-02-15 09:30:00,28.9,27.1,29.59,NNW,346,0.0,0.0,93,0.00,CLR,,0.00,WeatherDisplay:10.37,2013-02-15 18:30:00,
2013-02-15 09:35:00,29.0,27.2,29.60,NNW,345,0.0,0.0,93,0.00,CLR,,0.00,WeatherDisplay:10.37,2013-02-15 18:35:00,
2013-02-15 09:40:00,29.1,27.3,29.60,NNW,345,0.0,0.0,93,0.00,CLR,,0.00,WeatherDisplay:10.37,2013-02-15 18:40:00,
2013-02-15 09:45:00,29.2,27.4,29.60,NNW,346,0.0,0.0,93,0.00,CLR,,0.00,WeatherDisplay:10.37,2013-02-15 18:45:00,
2013-02-15 09:50:00,29.4,27.6,29.60,NNW,346,0.0,0.0,93,0.00,CLR,,0.00,WeatherDisplay:10.37,2013-02-15 18:50:00,
2013-02-15 09:55:00,29.5,28.0,29.60,NNW,345,0.0,0.0,94,0.00,CLR,,0.00,WeatherDisplay:10.37,2013-02-15 18:55:00,
2013-02-15 10:00:00,29.6,28.1,29.60,NNW,345,0.0,0.0,94,0.00,CLR,,0.00,WeatherDisplay:10.37,2013-02-15 19:00:00,
2013-02-15 10:05:00,29.8,28.3,29.60,NNW,346,0.0,0.0,94,0.00,CLR,,0.00,WeatherDisplay:10.37,2013-02-15 19:05:00,
2013-02-15 10:10:00,29.9,28.4,29.60,NNW,346,0.0,0.0,94,0.00,CLR,,0.00,WeatherDisplay:10.37,2013-02-15 19:10:00,
2013-02-15 10:15:00,30.1,28.6,29.60,NNW,346,0.0,0.0,94,0.00,CLR,,0.00,WeatherDisplay:10.37,2013-02-15 19:15:00,
2013-02-15 10:20:00,30.1,28.6,29.60,NNW,346,0.0,0.0,94,0.00,CLR,,0.00,WeatherDisplay:10.37,2013-02-15 19:20:00,
2013-02-15 10:25:00,30.2,28.4,29.60,NNW,346,0.0,0.0,93,0.00,CLR,,0.00,WeatherDisplay:10.37,2013-02-15 19:25:00,
2013-02-15 10:30:00,30.3,28.5,29.60,NNW,345,0.0,0.0,93,0.00,CLR,,0.00,WeatherDisplay:10.37,2013-02-15 19:30:00,
2013-02-15 10:35:00,30.4,28.6,29.61,NNW,345,0.0,0.0,93,0.00,CLR,,0.00,WeatherDisplay:10.37,2013-02-15 19:35:00,
2013-02-15 10:40:00,30.4,28.6,29.61,NNW,346,0.0,0.0,93,0.00,CLR,,0.00,WeatherDisplay:10.37,2013-02-15 19:40:00,
2013-02-15 10:45:00,30.5,28.7,29.61,NNW,346,0.0,0.0,93,0.00,CLR,,0.00,WeatherDisplay:10.37,2013-02-15 19:45:00,
2013-02-15 10:50:00,30.5,28.7,29.61,NNW,346,0.0,0.0,93,0.00,CLR,,0.00,WeatherDisplay:10.37,2013-02-15 19:50:00,
2013-02-15 10:55:00,30.7,28.9,29.61,NNW,346,0.0,0.0,93,0.00,CLR,,0.00,WeatherDisplay:10.37,2013-02-15 19:55:00,
2013-02-15 11:00:00,30.8,29.0,29.61,NNW,346,0.0,0.0,93,0.00,CLR,,0.00,WeatherDisplay:10.37,2013-02-15 20:00:00,
2013-02-15 11:05:00,31.0,29.2,29.62,NNW,346,0.0,0.0,93,0.00,CLR,,0.00,WeatherDisplay:10.37,2013-02-15 20:05:00,
2013-02-15 11:10:00,31.2,29.4,29.62,NNW,345,0.0,0.0,93,0.00,CLR,,0.00,WeatherDisplay:10.37,2013-02-15 20:10:00,
2013-02-15 11:15:00,31.3,29.5,29.62,NNW,345,0.0,0.0,93,0.00,CLR,,0.00,WeatherDisplay:10.37,2013-02-15 20:15:00,
2013-02-15 11:20:00,31.5,29.7,29.62,NNW,346,0.0,0.0,93,0.00,CLR,,0.00,WeatherDisplay:10.37,2013-02-15 20:20:00,
2013-02-15 11:25:00,31.6,29.8,29.62,NNW,345,0.0,0.0,93,0.00,CLR,,0.00,WeatherDisplay:10.37,2013-02-15 20:25:00,
2013-02-15 11:30:00,31.8,30.0,29.62,NNW,345,0.0,0.0,93,0.00,CLR,,0.00,WeatherDisplay:10.37,2013-02-15 20:30:00,
2013-02-15 11:35:00,32.0,29.9,29.62,NNW,346,0.0,0.0,92,0.00,CLR,,0.00,WeatherDisplay:10.37,2013-02-15 20:35:00,
2013-02-15 11:40:00,32.0,29.9,29.62,NNW,346,0.0,0.0,92,0.00,CLR,,0.00,WeatherDisplay:10.37,2013-02-15 20:40:00,
2013-02-15 11:45:00,32.1,30.0,29.62,NNW,345,0.0,0.0,92,0.00,CLR,,0.00,WeatherDisplay:10.37,2013-02-15 20:45:00,
2013-02-15 11:50:00,32.3,30.2,29.62,NNW,346,0.0,0.0,92,0.00,CLR,,0.00,WeatherDisplay:10.37,2013-02-15 20:50:00,
2013-02-15 11:55:00,32.6,30.5,29.62,NNW,346,0.0,0.0,92,0.00,CLR,,0.00,WeatherDisplay:10.37,2013-02-15 20:55:00,
2013-02-15 12:00:00,32.9,30.8,29.62,NNW,345,0.0,0.0,92,0.00,CLR,,0.00,WeatherDisplay:10.37,2013-02-15 21:00:00,
2013-02-15 12:05:00,33.0,30.7,29.63,NNW,346,0.0,0.0,91,0.00,CLR,,0.00,WeatherDisplay:10.37,2013-02-15 21:05:00,
2013-02-15 12:10:00,33.1,30.8,29.63,NNW,346,0.0,0.0,91,0.00,CLR,,0.00,WeatherDisplay:10.37,2013-02-15 21:10:00,
2013-02-15 12:15:00,33.2,30.9,29.63,NNW,346,0.0,0.0,91,0.00,CLR,,0.00,WeatherDisplay:10.37,2013-02-15 21:15:00,
2013-02-15 12:20:00,33.3,30.7,29.63,NNW,346,0.0,0.0,90,0.01,RA,,0.01,WeatherDisplay:10.37,2013-02-15 21:20:00,
2013-02-15 12:25:00,33.0,30.4,29.63,NNW,346,0.0,0.0,90,0.01,RA,,0.01,WeatherDisplay:10.37,2013-02-15 21:25:00,
2013-02-15 12:30:00,33.0,30.7,29.63,NNW,346,0.0,0.0,91,0.01,CLR,,0.01,WeatherDisplay:10.37,2013-02-15 21:30:00,
2013-02-15 12:35:00,33.3,31.0,29.63,NNW,346,0.0,0.0,91,0.01,CLR,,0.01,WeatherDisplay:10.37,2013-02-15 21:35:00,
2013-02-15 12:40:00,33.5,31.2,29.63,NNW,345,0.0,0.0,91,0.01,CLR,,0.01,WeatherDisplay:10.37,2013-02-15 21:40:00,
2013-02-15 12:45:00,33.5,31.2,29.64,NNW,345,0.0,0.0,91,0.01,CLR,,0.01,WeatherDisplay:10.37,2013-02-15 21:45:00,
2013-02-15 12:50:00,33.7,31.4,29.64,NNW,346,0.0,0.0,91,0.01,CLR,,0.01,WeatherDisplay:10.37,2013-02-15 21:50:00,
2013-02-15 12:55:00,33.9,31.6,29.64,NNW,346,0.0,0.0,91,0.01,CLR,,0.01,WeatherDisplay:10.37,2013-02-15 21:55:00,
2013-02-15 13:00:00,34.3,31.9,29.64,NNW,346,0.0,0.0,91,0.01,CLR,,0.01,WeatherDisplay:10.37,2013-02-15 22:00:00,
2013-02-15 13:05:00,34.4,32.0,29.64,NNW,345,0.0,0.0,91,0.01,CLR,,0.01,WeatherDisplay:10.37,2013-02-15 22:05:00,
2013-02-15 13:10:00,34.4,31.8,29.64,NNW,346,0.0,0.0,90,0.01,CLR,,0.01,WeatherDisplay:10.37,2013-02-15 22:10:00,
2013-02-15 13:15:00,34.4,31.8,29.64,NNW,346,0.0,0.0,90,0.01,CLR,,0.01,WeatherDisplay:10.37,2013-02-15 22:15:00,
2013-02-15 13:20:00,34.4,31.5,29.64,NNW,345,0.0,0.0,89,0.00,CLR,,0.01,WeatherDisplay:10.37,2013-02-15 22:20:00,
2013-02-15 13:25:00,34.5,31.9,29.65,NNW,345,0.0,0.0,90,0.00,CLR,,0.01,WeatherDisplay:10.37,2013-02-15 22:25:00,
2013-02-15 13:30:00,34.8,31.9,29.65,NNW,346,0.0,0.0,89,0.01,RA,,0.02,WeatherDisplay:10.37,2013-02-15 22:30:00,
2013-02-15 13:35:00,34.9,31.7,29.65,NNW,345,0.0,0.0,88,0.01,RA,,0.02,WeatherDisplay:10.37,2013-02-15 22:35:00,
2013-02-15 13:40:00,34.8,31.3,29.65,NNW,345,0.0,0.0,87,0.01,,,0.02,WeatherDisplay:10.37,2013-02-15 22:40:00,
2013-02-15 13:45:00,34.7,29.5,29.65,NNW,346,0.0,0.0,81,0.01,CLR,,0.02,WeatherDisplay:10.37,2013-02-15 22:45:00,
2013-02-15 13:50:00,34.9,30.3,29.65,NNW,346,0.0,0.0,83,0.01,CLR,,0.02,WeatherDisplay:10.37,2013-02-15 22:50:00,
2013-02-15 13:55:00,35.0,30.9,29.65,NNW,346,0.0,0.0,85,0.02,RA,,0.03,WeatherDisplay:10.37,2013-02-15 22:55:00,
2013-02-15 14:00:00,35.1,29.2,29.65,NNW,346,0.0,0.0,79,0.02,RA,,0.03,WeatherDisplay:10.37,2013-02-15 23:00:00,
2013-02-15 14:05:00,35.2,30.3,29.64,NNW,346,0.0,0.0,82,0.02,,,0.03,WeatherDisplay:10.37,2013-02-15 23:05:00,
2013-02-15 14:10:00,35.5,30.5,29.65,NNW,347,0.0,0.0,82,0.02,CLR,,0.03,WeatherDisplay:10.37,2013-02-15 23:10:00,
2013-02-15 14:15:00,35.7,29.8,29.65,NNW,347,0.0,0.0,79,0.02,CLR,,0.03,WeatherDisplay:10.37,2013-02-15 23:15:00,
2013-02-15 14:20:00,35.9,27.4,29.65,NNW,345,0.0,0.0,71,0.02,CLR,,0.03,WeatherDisplay:10.37,2013-02-15 23:20:00,
2013-02-15 14:25:00,35.9,26.4,29.65,NNW,345,0.0,0.0,68,0.02,CLR,,0.03,WeatherDisplay:10.37,2013-02-15 23:25:00,
2013-02-15 14:30:00,35.8,26.3,29.65,NNW,345,0.0,0.0,68,0.01,CLR,,0.03,WeatherDisplay:10.37,2013-02-15 23:30:00,
2013-02-15 14:35:00,35.5,26.7,29.65,NNW,345,0.0,0.0,70,0.01,CLR,,0.03,WeatherDisplay:10.37,2013-02-15 23:35:00,
2013-02-15 14:40:00,35.2,26.4,29.65,NNW,345,0.0,0.0,70,0.02,RA,,0.04,WeatherDisplay:10.37,2013-02-15 23:40:00,
2013-02-15 14:45:00,34.9,26.1,29.65,NNW,347,0.0,0.0,70,0.02,RA,,0.04,WeatherDisplay:10.37,2013-02-15 23:45:00,
2013-02-15 14:50:00,34.6,25.8,29.65,NNW,347,0.0,0.0,70,0.02,,,0.04,WeatherDisplay:10.37,2013-02-15 23:50:00,
2013-02-15 14:55:00,34.5,25.4,29.65,NNW,347,0.0,0.0,69,0.01,CLR,,0.04,WeatherDisplay:10.37,2013-02-15 23:55:00,
2013-02-15 15:00:00,34.4,26.0,29.65,NNW,345,0.0,0.0,71,0.01,CLR,,0.04,WeatherDisplay:10.37,2013-02-16 00:00:00,
2013-02-15 15:05:00,34.4,26.0,29.65,NNW,345,0.0,0.0,71,0.01,CLR,,0.04,WeatherDisplay:10.37,2013-02-16 00:05:00,
2013-02-15 15:10:00,34.5,26.1,29.65,NNW,345,0.0,0.0,71,0.01,CLR,,0.04,WeatherDisplay:10.37,2013-02-16 00:10:00,
2013-02-15 15:15:00,34.4,26.0,29.65,NNW,346,0.0,0.0,71,0.01,CLR,,0.04,WeatherDisplay:10.37,2013-02-16 00:15:00,
2013-02-15 15:20:00,34.4,25.6,29.65,NNW,344,0.0,0.0,70,0.01,CLR,,0.04,WeatherDisplay:10.37,2013-02-16 00:20:00,
2013-02-15 15:25:00,34.3,25.2,29.65,NNW,344,0.0,0.0,69,0.01,CLR,,0.04,WeatherDisplay:10.37,2013-02-16 00:25:00,
2013-02-15 15:30:00,33.8,25.4,29.65,NNW,344,0.0,0.0,71,0.01,CLR,,0.04,WeatherDisplay:10.37,2013-02-16 00:30:00,
2013-02-15 15:35:00,33.8,25.7,29.66,NNW,344,0.0,0.0,72,0.01,CLR,,0.04,WeatherDisplay:10.37,2013-02-16 00:35:00,
2013-02-15 15:40:00,33.7,25.0,29.66,NNW,343,0.0,0.0,70,0.00,CLR,,0.04,WeatherDisplay:10.37,2013-02-16 00:40:00,
2013-02-15 15:45:00,33.3,24.9,29.66,NNW,345,0.0,0.0,71,0.00,CLR,,0.04,WeatherDisplay:10.37,2013-02-16 00:45:00,
2013-02-15 15:50:00,33.0,24.6,29.66,NNW,345,0.0,0.0,71,0.00,CLR,,0.04,WeatherDisplay:10.37,2013-02-16 00:50:00,
2013-02-15 15:55:00,32.9,24.2,29.66,NNW,345,0.0,0.0,70,0.00,CLR,,0.04,WeatherDisplay:10.37,2013-02-16 00:55:00,
2013-02-15 16:00:00,32.7,21.5,29.66,NNW,341,0.0,0.0,63,0.00,CLR,,0.04,WeatherDisplay:10.37,2013-02-16 01:00:00,
2013-02-15 16:05:00,32.6,21.8,29.67,NNW,341,0.0,0.0,64,0.00,CLR,,0.04,WeatherDisplay:10.37,2013-02-16 01:05:00,
2013-02-15 16:10:00,32.2,22.1,29.67,NNW,343,0.0,0.0,66,0.00,CLR,,0.04,WeatherDisplay:10.37,2013-02-16 01:10:00,
2013-02-15 16:15:00,32.2,20.2,29.68,NNW,341,0.0,0.0,61,0.00,CLR,,0.04,WeatherDisplay:10.37,2013-02-16 01:15:00,
2013-02-15 16:20:00,32.3,21.1,29.68,NNW,341,0.0,0.0,63,0.00,CLR,,0.04,WeatherDisplay:10.37,2013-02-16 01:20:00,
2013-02-15 16:25:00,31.9,20.3,29.68,NNW,341,0.0,0.0,62,0.00,CLR,,0.04,WeatherDisplay:10.37,2013-02-16 01:25:00,
2013-02-15 16:30:00,31.5,20.7,29.68,NNW,340,0.0,0.0,64,0.00,CLR,,0.04,WeatherDisplay:10.37,2013-02-16 01:30:00,
2013-02-15 16:35:00,31.3,20.5,29.68,NNW,343,0.0,0.0,64,0.00,CLR,,0.04,WeatherDisplay:10.37,2013-02-16 01:35:00,
2013-02-15 16:40:00,31.2,20.4,29.68,NNW,343,0.0,0.0,64,0.00,CLR,,0.04,WeatherDisplay:10.37,2013-02-16 01:40:00,
2013-02-15 16:45:00,31.0,20.2,29.69,NNW,343,0.0,0.0,64,0.00,CLR,,0.04,WeatherDisplay:10.37,2013-02-16 01:45:00,
2013-02-15 16:50:00,30.9,19.8,29.69,NNW,343,0.0,0.0,63,0.00,CLR,,0.04,WeatherDisplay:10.37,2013-02-16 01:50:00,
2013-02-15 16:55:00,30.6,19.9,29.69,NNW,344,0.0,0.0,64,0.00,CLR,,0.04,WeatherDisplay:10.37,2013-02-16 01:55:00,
2013-02-15 17:00:00,30.6,20.6,29.70,NNW,340,0.0,0.0,66,0.00,CLR,,0.04,WeatherDisplay:10.37,2013-02-16 02:00:00,
2013-02-15 17:05:00,30.7,21.0,29.70,NNW,341,0.0,0.0,67,0.00,CLR,,0.04,WeatherDisplay:10.37,2013-02-16 02:05:00,
2013-02-15 17:10:00,30.7,21.0,29.70,NNW,340,0.0,0.0,67,0.00,CLR,,0.04,WeatherDisplay:10.37,2013-02-16 02:10:00,
2013-02-15 17:15:00,30.5,21.2,29.70,NNW,341,0.0,0.0,68,0.00,CLR,,0.04,WeatherDisplay:10.37,2013-02-16 02:15:00,
2013-02-15 17:20:00,30.3,21.3,29.70,NNW,341,0.0,0.0,69,0.00,CLR,,0.04,WeatherDisplay:10.37,2013-02-16 02:20:00,
2013-02-15 17:25:00,30.4,21.1,29.70,NNW,341,0.0,0.0,68,0.00,CLR,,0.04,WeatherDisplay:10.37,2013-02-16 02:25:00,
2013-02-15 17:30:00,30.4,20.7,29.70,NNW,339,0.0,0.0,67,0.00,CLR,,0.04,WeatherDisplay:10.37,2013-02-16 02:30:00,
2013-02-15 17:35:00,30.3,19.9,29.71,NNW,343,0.0,0.0,65,0.00,CLR,,0.04,WeatherDisplay:10.37,2013-02-16 02:35:00,
2013-02-15 17:40:00,30.4,20.0,29.71,NNW,341,0.0,0.0,65,0.00,CLR,,0.04,WeatherDisplay:10.37,2013-02-16 02:40:00,
2013-02-15 17:45:00,30.3,19.9,29.72,NNW,340,0.0,0.0,65,0.00,CLR,,0.04,WeatherDisplay:10.37,2013-02-16 02:45:00,
2013-02-15 17:50:00,30.1,19.7,29.71,NNW,341,0.0,0.0,65,0.00,CLR,,0.04,WeatherDisplay:10.37,2013-02-16 02:50:00,
2013-02-15 17:55:00,30.2,19.8,29.72,NNW,341,0.0,0.0,65,0.00,CLR,,0.04,WeatherDisplay:10.37,2013-02-16 02:55:00,
2013-02-15 18:00:00,30.0,20.0,29.72,NNW,342,0.0,0.0,66,0.00,CLR,,0.04,WeatherDisplay:10.37,2013-02-16 03:00:00,
2013-02-15 18:05:00,29.9,18.8,29.72,NNW,341,0.0,0.0,63,0.00,CLR,,0.04,WeatherDisplay:10.37,2013-02-16 03:05:00,
2013-02-15 18:10:00,29.7,18.6,29.72,NNW,340,0.0,0.0,63,0.00,CLR,,0.04,WeatherDisplay:10.37,2013-02-16 03:10:00,
2013-02-15 18:15:00,29.7,19.4,29.73,NNW,343,0.0,0.0,65,0.00,CLR,,0.04,WeatherDisplay:10.37,2013-02-16 03:15:00,
2013-02-15 18:20:00,29.5,18.4,29.73,NNW,341,0.0,0.0,63,0.00,CLR,,0.04,WeatherDisplay:10.37,2013-02-16 03:20:00,
2013-02-15 18:25:00,29.3,17.5,29.73,NNW,341,0.0,0.0,61,0.00,CLR,,0.04,WeatherDisplay:10.37,2013-02-16 03:25:00,
2013-02-15 18:30:00,29.1,17.7,29.73,NNW,340,0.0,0.0,62,0.00,CLR,,0.04,WeatherDisplay:10.37,2013-02-16 03:30:00,
2013-02-15 18:35:00,29.0,18.3,29.74,NNW,341,0.0,0.0,64,0.00,CLR,,0.04,WeatherDisplay:10.37,2013-02-16 03:35:00,
2013-02-15 18:40:00,28.8,17.8,29.74,NNW,341,0.0,0.0,63,0.00,CLR,,0.04,WeatherDisplay:10.37,2013-02-16 03:40:00,
2013-02-15 18:45:00,28.9,17.5,29.74,NNW,341,0.0,0.0,62,0.00,CLR,,0.04,WeatherDisplay:10.37,2013-02-16 03:45:00,
2013-02-15 18:50:00,28.8,17.4,29.73,NNW,342,0.0,0.0,62,0.00,CLR,,0.04,WeatherDisplay:10.37,2013-02-16 03:50:00,
2013-02-15 18:55:00,29.1,16.9,29.73,NNW,342,0.0,0.0,60,0.00,CLR,,0.04,WeatherDisplay:10.37,2013-02-16 03:55:00,
2013-02-15 19:00:00,29.3,16.3,29.73,NNW,340,0.0,0.0,58,0.00,CLR,,0.04,WeatherDisplay:10.37,2013-02-16 04:00:00,
2013-02-15 19:05:00,29.2,15.8,29.74,NNW,340,0.0,0.0,57,0.00,CLR,,0.04,WeatherDisplay:10.37,2013-02-16 04:05:00,
2013-02-15 19:10:00,29.3,15.9,29.74,NNW,341,0.0,0.0,57,0.00,CLR,,0.04,WeatherDisplay:10.37,2013-02-16 04:10:00,
2013-02-15 19:15:00,29.5,16.1,29.74,NNW,340,0.0,0.0,57,0.00,CLR,,0.04,WeatherDisplay:10.37,2013-02-16 04:15:00,
2013-02-15 19:20:00,29.6,16.2,29.74,NNW,341,0.0,0.0,57,0.00,CLR,,0.04,WeatherDisplay:10.37,2013-02-16 04:20:00,
2013-02-15 19:25:00,29.6,16.2,29.75,NNW,340,0.0,0.0,57,0.00,CLR,,0.04,WeatherDisplay:10.37,2013-02-16 04:25:00,
2013-02-15 19:30:00,29.4,16.0,29.75,NNW,340,0.0,0.0,57,0.00,CLR,,0.04,WeatherDisplay:10.37,2013-02-16 04:30:00,
2013-02-15 19:35:00,29.3,16.3,29.75,NNW,340,0.0,0.0,58,0.00,CLR,,0.04,WeatherDisplay:10.37,2013-02-16 04:35:00,
2013-02-15 19:40:00,28.9,16.4,29.75,NNW,340,0.0,0.0,59,0.00,CLR,,0.04,WeatherDisplay:10.37,2013-02-16 04:40:00,
2013-02-15 19:45:00,28.7,16.6,29.75,NNW,340,0.0,0.0,60,0.00,CLR,,0.04,WeatherDisplay:10.37,2013-02-16 04:45:00,
2013-02-15 19:50:00,28.5,16.7,29.76,NNW,341,0.0,0.0,61,0.00,CLR,,0.04,WeatherDisplay:10.37,2013-02-16 04:50:00,
2013-02-15 19:55:00,28.3,16.9,29.76,NNW,341,0.0,0.0,62,0.00,CLR,,0.04,WeatherDisplay:10.37,2013-02-16 04:55:00,
2013-02-15 20:00:00,28.4,17.0,29.75,NNW,343,0.0,0.0,62,0.00,CLR,,0.04,WeatherDisplay:10.37,2013-02-16 05:00:00,
2013-02-15 20:05:00,28.4,17.0,29.76,NNW,341,0.0,0.0,62,0.00,CLR,,0.04,WeatherDisplay:10.37,2013-02-16 05:05:00,
2013-02-15 20:10:00,28.3,16.9,29.76,NNW,341,0.0,0.0,62,0.00,CLR,,0.04,WeatherDisplay:10.37,2013-02-16 05:10:00,
2013-02-15 20:15:00,28.1,17.1,29.76,NNW,342,0.0,0.0,63,0.00,CLR,,0.04,WeatherDisplay:10.37,2013-02-16 05:15:00,
2013-02-15 20:20:00,28.0,16.6,29.76,NNW,342,0.0,0.0,62,0.00,CLR,,0.04,WeatherDisplay:10.37,2013-02-16 05:20:00,
2013-02-15 20:23:00,28.2,16.1,29.76,NNW,341,0.0,0.0,60,0.00,CLR,,0.04,WeatherDisplay:10.37,2013-02-16 05:23:00,
2013-02-15 20:28:00,28.5,15.6,29.75,NNW,342,0.0,0.0,58,0.00,CLR,,0.04,WeatherDisplay:10.37,2013-02-16 05:28:00,
2013-02-15 20:33:00,28.5,16.0,29.76,NNW,343,0.0,0.0,59,0.00,CLR,,0.04,WeatherDisplay:10.37,2013-02-16 05:33:00,
2013-02-15 20:38:00,28.1,16.0,29.76,NNW,341,0.0,0.0,60,0.00,CLR,,0.04,WeatherDisplay:10.37,2013-02-16 05:38:00,
2013-02-15 20:43:00,27.9,16.2,29.75,NNW,341,0.0,0.0,61,0.00,CLR,,0.04,WeatherDisplay:10.37,2013-02-16 05:43:00,
2013-02-15 20:48:00,27.9,15.8,29.76,NNW,343,0.0,0.0,60,0.00,CLR,,0.04,WeatherDisplay:10.37,2013-02-16 05:48:00,
2013-02-15 20:53:00,27.8,15.7,29.75,NNW,342,0.0,0.0,60,0.00,CLR,,0.04,WeatherDisplay:10.37,2013-02-16 05:53:00,
2013-02-15 20:58:00,27.7,16.0,29.76,NNW,341,0.0,0.0,61,0.00,CLR,,0.04,WeatherDisplay:10.37,2013-02-16 05:58:00,
2013-02-15 21:03:00,27.8,15.7,29.76,NNW,342,0.0,0.0,60,0.00,CLR,,0.04,WeatherDisplay:10.37,2013-02-16 06:03:00,
2013-02-15 21:08:00,27.9,15.4,29.77,NNW,341,0.0,0.0,59,0.00,CLR,,0.04,WeatherDisplay:10.37,2013-02-16 06:08:00,
2013-02-15 21:13:00,27.8,15.3,29.77,NNW,341,0.0,0.0,59,0.00,CLR,,0.04,WeatherDisplay:10.37,2013-02-16 06:13:00,
2013-02-15 21:18:00,27.8,14.9,29.77,NNW,341,0.0,0.0,58,0.00,CLR,,0.04,WeatherDisplay:10.37,2013-02-16 06:18:00,
2013-02-15 21:23:00,27.8,15.3,29.77,NNW,341,0.0,0.0,59,0.00,CLR,,0.04,WeatherDisplay:10.37,2013-02-16 06:23:00,
2013-02-15 21:28:00,27.8,15.3,29.77,NNW,341,0.0,0.0,59,0.00,CLR,,0.04,WeatherDisplay:10.37,2013-02-16 06:28:00,
2013-02-15 21:33:00,27.5,15.0,29.78,NNW,342,0.0,0.0,59,0.00,CLR,,0.04,WeatherDisplay:10.37,2013-02-16 06:33:00,
2013-02-15 21:38:00,27.5,14.6,29.78,NNW,341,0.0,0.0,58,0.00,CLR,,0.04,WeatherDisplay:10.37,2013-02-16 06:38:00,
2013-02-15 21:43:00,27.5,15.0,29.79,NNW,341,0.0,0.0,59,0.00,CLR,,0.04,WeatherDisplay:10.37,2013-02-16 06:43:00,
2013-02-15 21:48:00,27.4,14.9,29.79,NNW,340,0.0,0.0,59,0.00,CLR,,0.04,WeatherDisplay:10.37,2013-02-16 06:48:00,
2013-02-15 21:53:00,27.4,14.9,29.79,NNW,340,0.0,0.0,59,0.00,CLR,,0.04,WeatherDisplay:10.37,2013-02-16 06:53:00,
2013-02-15 21:58:00,27.2,15.1,29.80,NNW,341,0.0,0.0,60,0.00,CLR,,0.04,WeatherDisplay:10.37,2013-02-16 06:58:00,
2013-02-15 22:03:00,27.1,15.4,29.80,NNW,341,0.0,0.0,61,0.00,CLR,,0.04,WeatherDisplay:10.37,2013-02-16 07:03:00,
2013-02-15 22:08:00,27.1,15.0,29.80,NNW,341,0.0,0.0,60,0.00,CLR,,0.04,WeatherDisplay:10.37,2013-02-16 07:08:00,
2013-02-15 22:13:00,27.2,15.1,29.81,NNW,341,0.0,0.0,60,0.00,CLR,,0.04,WeatherDisplay:10.37,2013-02-16 07:13:00,
2013-02-15 22:18:00,27.1,15.0,29.81,NNW,342,0.0,0.0,60,0.00,CLR,,0.04,WeatherDisplay:10.37,2013-02-16 07:18:00,
2013-02-15 22:23:00,27.0,14.9,29.81,NNW,341,0.0,0.0,60,0.00,CLR,,0.04,WeatherDisplay:10.37,2013-02-16 07:23:00,
2013-02-15 22:28:00,27.1,15.0,29.81,NNW,341,0.0,0.0,60,0.00,CLR,,0.04,WeatherDisplay:10.37,2013-02-16 07:28:00,
2013-02-15 22:33:00,27.1,14.7,29.81,NNW,342,0.0,0.0,59,0.00,CLR,,0.04,WeatherDisplay:10.37,2013-02-16 07:33:00,
2013-02-15 22:38:00,27.1,14.7,29.81,NNW,340,0.0,0.0,59,0.00,CLR,,0.04,WeatherDisplay:10.37,2013-02-16 07:38:00,
2013-02-15 22:43:00,27.3,14.1,29.82,NNW,341,0.0,0.0,57,0.00,CLR,,0.04,WeatherDisplay:10.37,2013-02-16 07:43:00,
2013-02-15 22:48:00,27.5,13.8,29.82,NNW,343,0.0,0.0,56,0.00,CLR,,0.04,WeatherDisplay:10.37,2013-02-16 07:48:00,
2013-02-15 22:53:00,27.6,13.9,29.82,NNW,343,0.0,0.0,56,0.00,CLR,,0.04,WeatherDisplay:10.37,2013-02-16 07:53:00,
2013-02-15 22:58:00,27.5,13.4,29.83,NNW,343,0.0,0.0,55,0.00,CLR,,0.04,WeatherDisplay:10.37,2013-02-16 07:58:00,
2013-02-15 23:03:00,27.6,13.5,29.83,NNW,341,0.0,0.0,55,0.00,CLR,,0.04,WeatherDisplay:10.37,2013-02-16 08:03:00,
2013-02-15 23:08:00,27.6,13.5,29.84,NNW,343,0.0,0.0,55,0.00,CLR,,0.04,WeatherDisplay:10.37,2013-02-16 08:08:00,
2013-02-15 23:13:00,27.4,13.7,29.84,NNW,343,0.0,0.0,56,0.00,CLR,,0.04,WeatherDisplay:10.37,2013-02-16 08:13:00,
2013-02-15 23:18:00,27.2,14.0,29.84,NNW,343,0.0,0.0,57,0.00,CLR,,0.04,WeatherDisplay:10.37,2013-02-16 08:18:00,
2013-02-15 23:23:00,27.0,13.8,29.84,NNW,343,0.0,0.0,57,0.00,CLR,,0.04,WeatherDisplay:10.37,2013-02-16 08:23:00,
2013-02-15 23:28:00,27.0,13.8,29.84,NNW,344,0.0,0.0,57,0.00,CLR,,0.04,WeatherDisplay:10.37,2013-02-16 08:28:00,
2013-02-15 23:33:00,26.9,14.1,29.84,NNW,341,0.0,0.0,58,0.00,CLR,,0.04,WeatherDisplay:10.37,2013-02-16 08:33:00,
2013-02-15 23:38:00,26.9,13.3,29.84,NNW,343,0.0,0.0,56,0.00,CLR,,0.04,WeatherDisplay:10.37,2013-02-16 08:38:00,
2013-02-15 23:43:00,26.8,13.6,29.84,NNW,343,0.0,0.0,57,0.00,CLR,,0.04,WeatherDisplay:10.37,2013-02-16 08:43:00,
2013-02-15 23:48:00,26.8,13.2,29.85,NNW,343,0.0,0.0,56,0.00,CLR,,0.04,WeatherDisplay:10.37,2013-02-16 08:48:00,
2013-02-15 23:53:00,26.9,13.3,29.85,NNW,343,0.0,0.0,56,0.00,CLR,,0.04,WeatherDisplay:10.37,2013-02-16 08:53:00,
2013-02-15 23:58:00,26.8,13.6,29.84,NNW,344,0.0,0.0,57,0.00,CLR,,0.04,WeatherDisplay:10.37,2013-02-16 08:58:00,